Вернуться в каталог

STARLINK-32947

АктивенСвязьVLEO
NORAD 63121·PAYLOAD·🇺🇸 United States

Запущен Feb 27, 2025 с Cape Canaveral Space Force Station

Loading…

Ближайшие Пролёты (ближайшие 24 часа)

TLE

СвежийSource: CelesTrak SupGP

Эпоха: Sep 14, 2026, 20:53 UTC

1 63121C 25039T   26257.87062500  .00056091  00000+0  20315-2 0  2572
2 63121  43.0036  23.8871 0001703 275.5536 146.1919 15.27551536    16

Отслеживайте STARLINK-32947 в реальном времени с AllMySat

Download on the App Store